Flag for U.S.A. Weather past 2 weeks in Inverness, Florida, U.S.A.

Now
73 °F

Mild.


Feels Like: 68 °F
Forecast: 67 / 84 °F
Wind: No wind

Location: The Villages

Current Time: Apr 21, 2015 at 10:19:50 AM

Latest Report: Apr 21, 2015 at 9:55 AM


Visibility: 10 mi

Pressure: 29.90 "Hg

Humidity: 100%

Dew point: 73 °F

Location of InvernessLocation

Historic Weather in Inverness — Graph

°F

Inverness temperature yesterday

Maximum temperature yesterday: 82 °F (at 1:15 PM)
Minimum temperature yesterday: 66 °F (at 4:15 PM)
Average temperature yesterday: 72 °F

Past Weeks' High & Low Weather Summary

 TemperatureHumidityPressure
High90 °F (Apr 19, 3:15 PM)100% (Apr 7, 2:15 AM)30.12 "Hg (Apr 7, 2:15 AM)
Low64 °F (Apr 7, 4:15 AM)43% (Apr 9, 4:15 PM)29.76 "Hg (Apr 19, 4:35 PM)
Average75 °F88%29.97 "Hg
* Reported Apr 6 9:15 AM — Apr 21 9:15 AM, Inverness, Weather by CustomWeather, © 2015

Note: Actual official high and low records may vary slightly from our data, if they occured in-between our weather recording intervals... More about our weather records

Advertising

Inverness weather history for previous 24 hours

 ConditionsComfort  
Time TempWeatherWind HumidityBarometerVisibility
9:15 AM
Tue, Apr 21
72 °FMild.No wind100%29.89 "Hg10 mi
8:55 AM70 °FMild.No wind100%29.88 "Hg10 mi
8:35 AM70 °FMild.No wind100%29.88 "Hg9 mi
7:55 AM68 °FMild.No wind100%29.88 "Hg10 mi
7:35 AM66 °FMild.No wind100%29.87 "Hg10 mi
7:15 AM66 °FMild.No wind100%29.85 "Hg10 mi
6:55 AM66 °FMild.No wind100%29.84 "Hg7 mi
6:35 AM66 °FMild.No wind100%29.84 "Hg8 mi
6:15 AM66 °FFog.3 mph100%29.84 "Hg6 mi
5:55 AM66 °FMild.3 mph100%29.85 "Hg8 mi
5:15 AM66 °FMild.3 mph100%29.83 "Hg7 mi
4:55 AM66 °FMild.No wind100%29.83 "Hg10 mi
4:35 AM66 °FMild.No wind100%29.83 "Hg8 mi
4:15 AM66 °FMild.No wind100%29.83 "Hg10 mi
3:55 AM66 °FMild.No wind100%29.83 "Hg10 mi
3:35 AM66 °FMild.No wind100%29.83 "Hg10 mi
3:15 AM66 °FMild.No wind100%29.84 "Hg7 mi
2:55 AM66 °FMild.No wind100%29.84 "Hg10 mi
2:35 AM66 °FMild.6 mph100%29.84 "Hg10 mi
2:15 AM66 °FMild.3 mph100%29.84 "Hg7 mi
1:55 AM66 °FMild.5 mph100%29.84 "Hg9 mi
1:35 AM66 °FMild.5 mph100%29.85 "Hg10 mi
1:15 AM66 °FMild.No wind100%29.85 "Hg10 mi
12:55 AM66 °FMild.No wind100%29.85 "Hg9 mi
12:15 AM66 °FMild.6 mph100%29.85 "Hg10 mi
11:15 PM
Mon, Apr 20
66 °FMild.5 mph100%29.84 "Hg9 mi
10:55 PM66 °FMild.7 mph100%29.84 "Hg10 mi
10:35 PM66 °FMild.5 mph100%29.83 "Hg10 mi
10:15 PM66 °FMild.5 mph100%29.82 "Hg10 mi
9:55 PM66 °FMild.3 mph100%29.83 "Hg10 mi
9:15 PM66 °FMild.6 mph100%29.81 "Hg7 mi
8:55 PM66 °FMild.No wind100%29.81 "Hg10 mi
8:35 PM66 °FMild.No wind100%29.81 "Hg9 mi
8:15 PM66 °FMild.No wind100%29.80 "Hg8 mi
7:55 PM66 °FMild.3 mph100%29.79 "Hg10 mi
7:35 PM66 °FMild.5 mph100%29.80 "Hg10 mi
7:15 PM66 °FMild.8 mph100%29.77 "Hg10 mi
6:55 PM66 °FMild.No wind100%29.79 "Hg9 mi
6:15 PM66 °FFog.No wind100%29.81 "Hg5 mi
5:55 PM66 °FMild.7 mph100%29.81 "Hg10 mi
5:15 PM66 °FMild.9 mph100%29.82 "Hg10 mi
4:55 PM66 °FMild.12 mph100%29.82 "Hg10 mi
4:35 PM66 °FMild.14 mph100%29.84 "Hg10 mi
4:15 PM66 °FMild.20 mph100%29.83 "Hg7 mi
3:55 PM72 °FMild.13 mph100%29.83 "Hg10 mi
3:35 PM72 °FMild.7 mph100%29.80 "HgN/A
3:15 PM75 °FMild.15 mph100%29.79 "Hg7 mi
2:55 PM79 °FFog.5 mph100%29.76 "Hg4 mi
2:35 PM82 °FWarm.7 mph89%29.77 "Hg10 mi
2:15 PM82 °FWarm.6 mph89%29.78 "Hg10 mi
1:55 PM82 °FWarm.7 mph89%29.80 "Hg10 mi
1:35 PM82 °FWarm.8 mph94%29.80 "Hg10 mi
1:15 PM82 °FWarm.7 mph89%29.81 "Hg10 mi
12:55 PM81 °FWarm.8 mph94%29.82 "Hg10 mi
12:35 PM81 °FWarm.7 mph94%29.83 "Hg10 mi
12:15 PM81 °FWarm.8 mph94%29.85 "Hg10 mi
11:55 AM81 °FWarm.7 mph94%29.85 "Hg10 mi
11:35 AM81 °FWarm.7 mph94%29.85 "Hg9 mi
11:15 AM81 °FFog.7 mph94%29.85 "Hg4 mi
10:55 AM79 °FWarm.7 mph100%29.84 "Hg10 mi
10:35 AM77 °FFog.8 mph100%29.84 "Hg6 mi
10:15 AM77 °FWarm.8 mph100%29.83 "Hg10 mi
Weather by CustomWeather, © 2015

See weather overviewHow to use our weather pages